This demonstration page uses our WeatherBlox Daily Observations layout. Learn more.

Left ArrowRight Arrow

Hourly Observations for June 10, 2015

Temp ( °F °C ) Dew Point ( °F °C ) Humidity (%) Winds ( mph kmh ) Pressure ( in mb ) Visibility ( mi km ) Precip ( " mm )
12:37 am 00:37 Partly Cloudy with Nearby Thunderstorms 67 19.4 48 8.9 51 51 E 23 37 29.71 1006 10 16 0.00 0.00
12:53 am 00:53 Mostly Clear 66 18.9 49 9.4 54 54 E 22 35 29.71 1006 10 16 0.00 0.00
1:53 am 01:53 Mostly Clear 63 17.2 52 11.1 68 68 E 21 33 29.68 1005 10 16 0.00 0.00
2:53 am 02:53 Clear 62 16.7 51 10.6 67 67 ENE 16 26 29.73 1007 10 16 0.00 0.00
3:53 am 03:53 Clear 60 15.6 49 9.4 67 67 ENE 20 31 29.76 1008 10 16 0.00 0.00
4:53 am 04:53 Clear 59 15 47 8.3 64 64 ENE 25 41 29.80 1009 10 16 0.00 0.00
5:53 am 05:53 Sunny 60 15.6 47 8.3 62 62 ENE 26 43 29.83 1010 10 16 0.00 0.00
6:53 am 06:53 Mostly Sunny 57 13.9 47 8.3 69 69 E 18 30 29.85 1011 10 16 0.00 0.00
7:53 am 07:53 Sunny 59 15 48 8.9 67 67 E 23 37 29.86 1011 10 16 0.00 0.00
8:53 am 08:53 Partly Cloudy 63 17.2 49 9.4 60 60 E 24 39 29.85 1011 10 16 0.00 0.00
9:53 am 09:53 Mostly Cloudy 63 17.2 49 9.4 60 60 E 17 28 29.86 1011 10 16 0.00 0.00
10:53 am 10:53 Mostly Cloudy 66 18.9 51 10.6 59 59 E 20 31 29.85 1011 10 16 0.00 0.00
11:53 am 11:53 Cloudy 67 19.4 52 11.1 59 59 E 16 26 29.84 1011 10 16 0.00 0.03
12:53 pm 12:53 Cloudy 68 20 53 11.7 59 59 E 18 30 29.84 1011 10 16 0.00 0.00
1:53 pm 13:53 Mostly Cloudy 70 21.1 53 11.7 55 55 E 22 35 29.84 1011 10 16 0.00 0.00
2:53 pm 14:53 Sunny 71 21.7 53 11.7 53 53 ESE 18 30 29.83 1010 10 16 0.00 0.00
3:53 pm 15:53 Mostly Sunny 70 21.1 53 11.7 55 55 E 14 22 29.83 1010 10 16 0.00 0.00
4:53 pm 16:53 Sunny 71 21.7 55 12.8 57 57 E 15 24 29.82 1010 10 16 0.00 0.00
5:53 pm 17:53 Sunny 70 21.1 54 12.2 57 57 E 17 28 29.80 1009 10 16 0.00 0.00
6:53 pm 18:53 Sunny 70 21.1 54 12.2 57 57 E 15 24 29.82 1010 10 16 0.00 0.00
7:53 pm 19:53 Sunny 67 19.4 54 12.2 63 63 E 16 26 29.83 1010 10 16 0.00 0.00
8:53 pm 20:53 Sunny 64 17.8 54 12.2 70 70 E 14 22 29.84 1011 10 16 0.00 0.00
9:53 pm 21:53 Clear 61 16.1 54 12.2 78 78 E 12 19 29.86 1011 10 16 0.00 0.00
10:53 pm 22:53 Mostly Cloudy 59 15 53 11.7 81 81 E 13 20 29.86 1011 10 16 0.00 0.00
11:53 pm 23:53 Mostly Clear 58 14.4 54 12.2 87 87 E 12 19 29.85 1011 10 16 0.00 0.00

Powered by AerisWeather